Regional Weather Roundup
Issued by NWS

Home | Current Version | Previous Version | Text Only | Print | Product List | Glossary On
Versions: 1 2 3 4 5 6 7 8 9 10 11 12 13 14 15 16 17 18 19 20 21 22 23 24 25 26 27 28 29 30 31 32 33 34 35 36 37 38 39 40 41 42 43 44 45 46 47 48 49 50
000
ASUS45 KREV 240810
RWRNV
NEVADA REGIONAL WEATHER ROUNDUP
NATIONAL WEATHER SERVICE RENO NV
100 AM PDT SUN JUL 24 2016

NOTE: "FAIR" INDICATES FEW OR NO CLOUDS BELOW 12,000 FEET WITH NO
SIGNIFICANT WEATHER AND/OR OBSTRUCTIONS TO VISIBILITY.

NVZ001-003-004-240900-
WESTERN NEVADA

CITY           SKY/WX    TMP DP  RH WIND       PRES   REMARKS
RENO           CLEAR     71  32  23 CALM      30.09S
CARSON CITY    FAIR      66  25  20 NW5       30.13S
MINDEN         FAIR      55  23  28 SE6       30.13S
PYRAMID LAKE     N/A     75 N/A N/A W8          N/A
FALLON         CLEAR     60  29  30 S6        30.03S
LOVELOCK       CLEAR     65  16  15 NE7       30.05R
HAWTHORNE      CLEAR     70  19  14 S7        30.06F
$$

NVZ002-CAZ072-073-240900-
NORTHERN AND CENTRAL SIERRA

CITY           SKY/WX    TMP DP  RH WIND       PRES   REMARKS
S. LAKE TAHOE  CLEAR     50  32  50 CALM      30.23F
TRUCKEE        CLEAR     50  32  50 CALM      30.22F
SQUAW VLY 8000 NOT AVBL
SUSANVILLE     CLEAR     63  30  29 W3        30.09S
MAMMOTH LAKES    N/A     61  19  20 W13       30.29F
BRIDGEPORT       N/A     51  23  33 CALM      30.27F
$$

NVZ030-031-036-240900-
NORTHERN NEVADA

CITY           SKY/WX    TMP DP  RH WIND       PRES   REMARKS
ELKO           CLEAR     63  29  27 E5        30.17R
WINNEMUCCA     CLEAR     70  21  15 NE10      30.11R
WENDOVER       CLEAR     73  30  20 W5        30.10R
$$

NVZ035-037-240900-
CENTRAL NEVADA

CITY           SKY/WX    TMP DP  RH WIND       PRES   REMARKS
ELY            CLEAR     57  16  20 SW3       30.21R
EUREKA           N/A     53  19  26 VRB7      30.19S
$$

NVZ013-014-240900-
SOUTH CENTRAL NEVADA

CITY           SKY/WX    TMP DP  RH WIND       PRES   REMARKS
TONOPAH        CLEAR     73   2   6 NE14      30.13R
$$

NVZ017-020-022-240900-
SOUTHERN NEVADA

CITY           SKY/WX    TMP DP  RH WIND       PRES   REMARKS
LAS VEGAS      CLEAR     99  45  15 S8        29.77R
N. LAS VEGAS   CLEAR     95  36  12 S5        29.79S
NELLIS AFB     CLEAR     94  45  19 SW1       29.77R
HENDERSON      CLEAR     92  50  23 S8        29.85R
MERCURY        CLEAR     83  32  16 E9        29.89S
$$



USA.gov is the U.S. government's official web portal to all federal, state and local government web resources and services.